When you browse on this site, cookies collect data to enhance your experience and personalize the content and advertising you see.
Visit our Privacy Policy to learn more. By continuing to use the site, you agree to this use of cookies and data.
  • In United Kingdom
  • List of Countries
  • For 7 days
  • Water Temperature
  • Satellite Maps
  • Weather Map
  • Weather Widgets
  • user-avatar
    Login

    Hourly Weather Ovlashi

    Today, 25 April, Thursday

    Time Temperature Precipitation Wind Pressure Humidity
    00:00 +13°C° 0 mm 0 mps 758 mmHg 54%
    01:00 +13°C° 0 mm 0 mps 758 mmHg 55%
    02:00 +14°C° 0 mm 1 mps 758 mmHg 56%
    03:00 +13°C° 0 mm 1 mps 758 mmHg 57%
    04:00 +13°C° 0 mm 1 mps 758 mmHg 58%
    05:00 +12°C° 0 mm 1 mps 758 mmHg 59%
    06:00 +14°C° 0 mm 1 mps 758 mmHg 55%
    07:00 +16°C° 0 mm 1 mps 758 mmHg 51%
    08:00 +19°C° 0 mm 1 mps 758 mmHg 48%
    09:00 +20°C° 0 mm 1 mps 758 mmHg 44%
    10:00 +20°C° 0 mm 0 mps 758 mmHg 41%
    11:00 +21°C° 0 mm 0 mps 758 mmHg 38%
    12:00 +24°C° 0 mm 1 mps 758 mmHg 36%
    13:00 +24°C° 0 mm 1 mps 758 mmHg 35%
    14:00 +24°C° 0 mm 1 mps 757 mmHg 33%
    15:00 +23°C° 0 mm 1 mps 757 mmHg 36%
    16:00 +23°C° 0 mm 1 mps 757 mmHg 39%
    17:00 +23°C° 0 mm 1 mps 756 mmHg 43%
    18:00 +21°C° 0 mm 1 mps 756 mmHg 44%
    19:00 +20°C° 0 mm 1 mps 756 mmHg 46%
    20:00 +19°C° 0 mm 1 mps 756 mmHg 48%
    21:00 +18°C° 0 mm 1 mps 756 mmHg 50%
    22:00 +18°C° 0 mm 1 mps 756 mmHg 52%
    23:00 +16°C° 0 mm 2 mps 756 mmHg 54%

    Tomorrow, 26 April, Friday

    Time Temperature Precipitation Wind Pressure Humidity
    00:00 +16°C° 0 mm 2 mps 756 mmHg 53%
    01:00 +16°C° 0 mm 2 mps 756 mmHg 53%
    02:00 +16°C° 0 mm 1 mps 756 mmHg 52%
    03:00 +16°C° 0 mm 1 mps 755 mmHg 53%
    04:00 +16°C° 0 mm 1 mps 755 mmHg 54%
    05:00 +15°C° 0 mm 1 mps 755 mmHg 55%
    06:00 +16°C° 0 mm 2 mps 755 mmHg 55%
    07:00 +17°C° 0 mm 2 mps 755 mmHg 55%
    08:00 +18°C° 0 mm 2 mps 755 mmHg 56%
    09:00 +19°C° 0 mm 2 mps 755 mmHg 49%
    10:00 +21°C° 0 mm 2 mps 755 mmHg 41%
    11:00 +23°C° 0 mm 2 mps 755 mmHg 34%
    12:00 +23°C° 0 mm 2 mps 754 mmHg 37%
    13:00 +23°C° 0 mm 2 mps 754 mmHg 39%
    14:00 +23°C° 0 mm 2 mps 754 mmHg 42%
    15:00 +21°C° 0 mm 2 mps 753 mmHg 43%
    16:00 +21°C° 0 mm 2 mps 753 mmHg 45%
    17:00 +21°C° 0 mm 2 mps 753 mmHg 46%
    18:00 +20°C° 0 mm 2 mps 753 mmHg 49%
    19:00 +19°C° 0 mm 2 mps 753 mmHg 52%
    20:00 +17°C° 0 mm 2 mps 753 mmHg 54%
    21:00 +16°C° 0 mm 2 mps 752 mmHg 55%
    22:00 +15°C° 0 mm 2 mps 752 mmHg 55%
    23:00 +15°C° 0 mm 2 mps 752 mmHg 55%

    Day after tomorrow, 27 April, Saturday

    Time Temperature Precipitation Wind Pressure Humidity
    00:00 +14°C° 0 mm 2 mps 752 mmHg 55%
    01:00 +13°C° 0 mm 2 mps 752 mmHg 54%
    02:00 +13°C° 0 mm 2 mps 752 mmHg 53%
    03:00 +12°C° 0 mm 2 mps 751 mmHg 56%
    04:00 +12°C° 0 mm 2 mps 751 mmHg 59%
    05:00 +12°C° 0 mm 2 mps 751 mmHg 62%
    06:00 +12°C° 0 mm 3 mps 751 mmHg 59%
    07:00 +14°C° 0 mm 3 mps 751 mmHg 57%
    08:00 +15°C° 0 mm 4 mps 751 mmHg 55%
    09:00 +18°C° 0 mm 4 mps 750 mmHg 50%
    10:00 +19°C° 0 mm 5 mps 750 mmHg 45%
    11:00 +20°C° 0 mm 6 mps 750 mmHg 40%
    12:00 +21°C° 0 mm 6 mps 749 mmHg 41%
    13:00 +21°C° 0 mm 6 mps 749 mmHg 41%
    14:00 +22°C° 0 mm 6 mps 749 mmHg 41%
    15:00 +21°C° 0 mm 5 mps 748 mmHg 47%
    16:00 +20°C° 0 mm 4 mps 748 mmHg 53%
    17:00 +19°C° 0 mm 3 mps 748 mmHg 59%
    18:00 +18°C° 0.3 mm 3 mps 747 mmHg 65%
    19:00 +17°C° 0.3 mm 2 mps 747 mmHg 70%
    20:00 +16°C° 0.3 mm 2 mps 747 mmHg 75%
    21:00 +16°C° 0 mm 3 mps 747 mmHg 75%
    22:00 +14°C° 0 mm 3 mps 747 mmHg 75%
    23:00 +14°C° 0 mm 4 mps 746 mmHg 74%

    28 April, Sunday

    Time Temperature Precipitation Wind Pressure Humidity
    00:00 +14°C° 0 mm 4 mps 746 mmHg 74%
    01:00 +13°C° 0 mm 4 mps 746 mmHg 74%
    02:00 +13°C° 0 mm 4 mps 746 mmHg 74%
    03:00 +12°C° 0 mm 4 mps 746 mmHg 74%
    04:00 +12°C° 0 mm 4 mps 746 mmHg 75%
    05:00 +12°C° 0 mm 4 mps 746 mmHg 75%
    06:00 +13°C° 0 mm 4 mps 746 mmHg 73%
    07:00 +13°C° 0 mm 4 mps 746 mmHg 71%
    08:00 +14°C° 0 mm 5 mps 746 mmHg 69%
    09:00 +15°C° 0.1 mm 5 mps 746 mmHg 65%
    10:00 +16°C° 0.1 mm 5 mps 746 mmHg 62%
    11:00 +17°C° 0.1 mm 5 mps 746 mmHg 58%
    12:00 +19°C° 0.1 mm 4 mps 746 mmHg 56%
    13:00 +20°C° 0.1 mm 4 mps 746 mmHg 53%
    14:00 +20°C° 0.1 mm 4 mps 745 mmHg 51%
    15:00 +20°C° 0 mm 3 mps 745 mmHg 51%
    16:00 +20°C° 0 mm 3 mps 745 mmHg 52%
    17:00 +20°C° 0 mm 2 mps 745 mmHg 52%
    18:00 +19°C° 0 mm 2 mps 745 mmHg 55%
    19:00 +18°C° 0 mm 2 mps 746 mmHg 58%
    20:00 +16°C° 0 mm 1 mps 746 mmHg 62%
    21:00 +16°C° 0.1 mm 3 mps 746 mmHg 70%
    22:00 +14°C° 0.1 mm 4 mps 746 mmHg 79%
    23:00 +13°C° 0.1 mm 5 mps 747 mmHg 88%

    29 April, Monday

    Time Temperature Precipitation Wind Pressure Humidity
    00:00 +11°C° 0.4 mm 6 mps 747 mmHg 88%
    01:00 +10°C° 0.4 mm 6 mps 747 mmHg 88%
    02:00 +9°C° 0.4 mm 7 mps 748 mmHg 88%
    03:00 +8°C° 0.8 mm 7 mps 748 mmHg 87%
    04:00 +6°C° 0.8 mm 7 mps 748 mmHg 87%
    05:00 +6°C° 0.8 mm 7 mps 748 mmHg 87%
    06:00 +5°C° 1.2 mm 7 mps 749 mmHg 87%
    07:00 +5°C° 1.2 mm 7 mps 749 mmHg 87%
    08:00 +5°C° 1.2 mm 7 mps 749 mmHg 87%
    09:00 +5°C° 1.1 mm 7 mps 750 mmHg 86%
    10:00 +4°C° 1.1 mm 7 mps 750 mmHg 85%
    11:00 +4°C° 1.1 mm 7 mps 750 mmHg 85%
    12:00 +5°C° 0.9 mm 7 mps 750 mmHg 84%
    13:00 +5°C° 0.9 mm 7 mps 750 mmHg 84%
    14:00 +5°C° 0.9 mm 7 mps 750 mmHg 84%
    15:00 +5°C° 0.5 mm 7 mps 750 mmHg 84%
    16:00 +5°C° 0.5 mm 7 mps 750 mmHg 84%
    17:00 +5°C° 0.5 mm 6 mps 750 mmHg 83%
    18:00 +5°C° 0.4 mm 6 mps 750 mmHg 83%
    19:00 +5°C° 0.4 mm 6 mps 751 mmHg 83%
    20:00 +5°C° 0.4 mm 6 mps 751 mmHg 83%
    21:00 +4°C° 0.5 mm 6 mps 751 mmHg 82%
    22:00 +4°C° 0.5 mm 6 mps 751 mmHg 82%
    23:00 +4°C° 0.5 mm 6 mps 751 mmHg 81%

    30 April, Tuesday

    Time Temperature Precipitation Wind Pressure Humidity
    00:00 +4°C° 0.5 mm 6 mps 751 mmHg 81%
    01:00 +4°C° 0.5 mm 6 mps 751 mmHg 81%
    02:00 +3°C° 0.5 mm 6 mps 751 mmHg 81%
    03:00 +3°C° 0.4 mm 6 mps 751 mmHg 81%
    04:00 +3°C° 0.4 mm 6 mps 751 mmHg 81%
    05:00 +3°C° 0.4 mm 7 mps 751 mmHg 81%
    06:00 +3°C° 0.3 mm 7 mps 751 mmHg 80%
    07:00 +3°C° 0.3 mm 7 mps 751 mmHg 79%
    08:00 +4°C° 0.3 mm 7 mps 751 mmHg 78%
    09:00 +4°C° 0.1 mm 7 mps 752 mmHg 77%
    10:00 +4°C° 0.1 mm 7 mps 752 mmHg 76%
    11:00 +5°C° 0.1 mm 7 mps 752 mmHg 75%
    12:00 +5°C° 0 mm 7 mps 752 mmHg 74%
    13:00 +6°C° 0 mm 7 mps 752 mmHg 73%
    14:00 +6°C° 0 mm 7 mps 751 mmHg 71%
    15:00 +6°C° 0 mm 7 mps 751 mmHg 71%
    16:00 +8°C° 0 mm 7 mps 751 mmHg 71%
    17:00 +8°C° 0 mm 6 mps 751 mmHg 71%
    18:00 +7°C° 0 mm 6 mps 751 mmHg 75%
    19:00 +5°C° 0 mm 5 mps 751 mmHg 78%
    20:00 +4°C° 0 mm 4 mps 751 mmHg 82%
    21:00 +3°C° 0 mm 5 mps 751 mmHg 81%
    22:00 +3°C° 0 mm 5 mps 751 mmHg 80%
    23:00 +3°C° 0 mm 6 mps 750 mmHg 79%
    Show more